Location: Beaver Brook Trail
(44.0290°N, 71.8137°W)
Time: 03:03:24
(UTC+00:00)

SR - Pass Details

Date: 17 November 2024
Orbit: 573 x 858 km, 66.7° (Epoch: 03 December)

Event Time Altitude Azimuth Distance (km) Brightness Sun altitude
Exits shadow 10:12:37 - 340° (NNW) 2,525 ? -16.6°
Reaches altitude 10° 10:13:22 10° 343° (NNW) 2,271 ? -16.5°
Maximum altitude 10:18:09 35° 49° (NE) 1,253 ? -15.7°
Drops below altitude 10° 10:23:13 10° 115° (ESE) 2,415 ? -14.8°
Sets 10:25:56 0° 124° (SE) 3,376 ? -14.3°
